Location: Eenumerhoogte
(53.3420°N, 6.7843°E)
Time: 07:17:46
(UTC+00:00)

Cosmos 2058 Rocket - Pass Details

Date: 15 May 2026
Orbit: 604 x 632 km, 82.5° (Epoch: 5 June)

Event Time Altitude Azimuth Distance (km) Brightness Sun altitude
Exits shadow 22:30:59 22° 208° (SSW) 1,327 4.3 -16.5°
Maximum altitude 22:33:38 62° 284° (WNW) 685 3.3 -16.6°
Drops below altitude 10° 22:37:57 10° 6° (N) 1,966 6.8 -16.8°
Sets 22:40:12 0° 10° (N) 2,874 7.8 -16.8°
